M I D A S
Marine Information and Data Acquisition System
Tripno 1207 of the Zeeleeuw from 2007-01-26 07:44:56 to 2007-01-26 15:02:39
Back to CruiseResearch ActivitiesStationsMapUnderway DataData graphs

EquipmentUnitsComments
TimeDGPSUTC
LatitudeDGPSDM.mWGS84
LongitudeDGPSDM.mWGS84
SpeedMeteo Stationm/sRelative wind speed
DirectionMeteo StationdegRelative wind direction
TemperatureMeteo Stationdeg CelciusAir temperature
PressureMeteo StationPaAtmospheric pressure
HumidityMeteo Station%Relative humidity
Missing or incorrect values are displayed as -999
Metereological data collected by the RV Zeeleeuw from 2007-01-26 07:45:56 to 2007-01-26 15:12:23
                                                                                    Next 1000 lines
Time Latitude Longitude Speed Direction Temperature Pressure Humidity
2007-01-26 07:46:06 51°13.598 2°56.092 -999 -999 -999 -999 -999
2007-01-26 07:46:11 51°13.599 2°56.091 -999 -999 -999 -999 -999
2007-01-26 07:46:16 51°13.599 2°56.088 -999 -999 -999 -999 -999
2007-01-26 07:46:21 51°13.6 2°56.085 -999 -999 -999 -999 -999
2007-01-26 07:46:26 51°13.601 2°56.081 -999 -999 -999 -999 -999
2007-01-26 07:46:31 51°13.602 2°56.077 -999 -999 -999 -999 -999
2007-01-26 07:46:36 51°13.604 2°56.071 -999 -999 -999 -999 -999
2007-01-26 07:46:41 51°13.606 2°56.065 -999 -999 -999 -999 -999
2007-01-26 07:46:46 51°13.608 2°56.058 -999 -999 -999 -999 -999
2007-01-26 07:46:51 51°13.61 2°56.05 -999 -999 -999 -999 -999
2007-01-26 07:46:56 51°13.613 2°56.042 -999 -999 -999 -999 -999
2007-01-26 07:47:01 51°13.615 2°56.033 -999 -999 -999 -999 -999
2007-01-26 07:47:06 51°13.618 2°56.024 -999 -999 -999 -999 -999
2007-01-26 07:47:11 51°13.62 2°56.015 -999 -999 -999 -999 -999
2007-01-26 07:47:16 51°13.623 2°56.005 -999 -999 -999 -999 -999
2007-01-26 07:47:21 51°13.626 2°55.996 -999 -999 -999 -999 -999
2007-01-26 07:47:26 51°13.628 2°55.986 -999 -999 -999 -999 -999
2007-01-26 07:47:31 51°13.631 2°55.977 -999 -999 -999 -999 -999
2007-01-26 07:47:36 51°13.633 2°55.968 -999 -999 -999 -999 -999
2007-01-26 07:47:41 51°13.636 2°55.958 -999 -999 -999 -999 -999
2007-01-26 07:47:46 51°13.639 2°55.949 -999 -999 -999 -999 -999
2007-01-26 07:47:51 51°13.642 2°55.94 -999 -999 -999 -999 -999
2007-01-26 07:47:56 51°13.644 2°55.931 -999 -999 -999 -999 -999
2007-01-26 07:48:01 51°13.647 2°55.922 -999 -999 -999 -999 -999
2007-01-26 07:48:06 51°13.65 2°55.913 -999 -999 -999 -999 -999
2007-01-26 07:48:11 51°13.653 2°55.905 -999 -999 -999 -999 -999
2007-01-26 07:48:16 51°13.656 2°55.897 -999 -999 -999 -999 -999
2007-01-26 07:48:21 51°13.658 2°55.889 -999 -999 -999 -999 -999
2007-01-26 07:48:26 51°13.66 2°55.881 -999 -999 -999 -999 -999
2007-01-26 07:48:31 51°13.663 2°55.874 -999 -999 -999 -999 -999
2007-01-26 07:48:36 51°13.665 2°55.866 -999 -999 -999 -999 -999
2007-01-26 07:48:41 51°13.668 2°55.859 -999 -999 -999 -999 -999
2007-01-26 07:48:46 51°13.67 2°55.852 -999 -999 -999 -999 -999
2007-01-26 07:48:51 51°13.672 2°55.845 -999 -999 -999 -999 -999
2007-01-26 07:48:56 51°13.674 2°55.838 -999 -999 -999 -999 -999
2007-01-26 07:49:01 51°13.676 2°55.831 -999 -999 -999 -999 -999
2007-01-26 07:49:06 51°13.677 2°55.824 -999 -999 -999 -999 -999
2007-01-26 07:49:11 51°13.679 2°55.818 -999 -999 -999 -999 -999
2007-01-26 07:49:16 51°13.68 2°55.812 -999 -999 -999 -999 -999
2007-01-26 07:49:21 51°13.682 2°55.806 -999 -999 -999 -999 -999
2007-01-26 07:49:26 51°13.683 2°55.799 -999 -999 -999 -999 -999
2007-01-26 07:49:31 51°13.685 2°55.794 -999 -999 -999 -999 -999
2007-01-26 07:49:36 51°13.686 2°55.788 -999 -999 -999 -999 -999
2007-01-26 07:49:41 51°13.687 2°55.782 -999 -999 -999 -999 -999
2007-01-26 07:49:46 51°13.688 2°55.776 -999 -999 -999 -999 -999
2007-01-26 07:49:51 51°13.689 2°55.771 -999 -999 -999 -999 -999
2007-01-26 07:49:56 51°13.689 2°55.765 -999 -999 -999 -999 -999
2007-01-26 07:50:01 51°13.69 2°55.76 -999 -999 -999 -999 -999
2007-01-26 07:50:06 51°13.69 2°55.755 -999 -999 -999 -999 -999
2007-01-26 07:50:11 51°13.691 2°55.75 -999 -999 -999 -999 -999
2007-01-26 07:50:16 51°13.691 2°55.745 -999 -999 -999 -999 -999
2007-01-26 07:50:21 51°13.691 2°55.74 -999 -999 -999 -999 -999
2007-01-26 07:50:26 51°13.691 2°55.736 -999 -999 -999 -999 -999
2007-01-26 07:50:31 51°13.692 2°55.732 -999 -999 -999 -999 -999
2007-01-26 07:50:36 51°13.692 2°55.728 -999 -999 -999 -999 -999
2007-01-26 07:50:41 51°13.692 2°55.725 -999 -999 -999 -999 -999
2007-01-26 07:50:46 51°13.692 2°55.723 -999 -999 -999 -999 -999
2007-01-26 07:50:51 51°13.692 2°55.721 -999 -999 -999 -999 -999
2007-01-26 07:50:56 51°13.692 2°55.72 -999 -999 -999 -999 -999
2007-01-26 07:51:01 51°13.693 2°55.72 -999 -999 -999 -999 -999
2007-01-26 07:51:06 51°13.693 2°55.72 -999 -999 -999 -999 -999
2007-01-26 07:51:11 51°13.694 2°55.721 -999 -999 -999 -999 -999
2007-01-26 07:51:16 51°13.695 2°55.722 -999 -999 -999 -999 -999
2007-01-26 07:51:21 51°13.697 2°55.723 -999 -999 -999 -999 -999
2007-01-26 07:51:26 51°13.699 2°55.724 -999 -999 -999 -999 -999
2007-01-26 07:51:31 51°13.701 2°55.726 -999 -999 -999 -999 -999
2007-01-26 07:51:36 51°13.704 2°55.727 -999 -999 -999 -999 -999
2007-01-26 07:51:41 51°13.707 2°55.728 -999 -999 -999 -999 -999
2007-01-26 07:51:46 51°13.71 2°55.729 -999 -999 -999 -999 -999
2007-01-26 07:51:51 51°13.713 2°55.73 -999 -999 -999 -999 -999
2007-01-26 07:51:56 51°13.717 2°55.729 -999 -999 -999 -999 -999
2007-01-26 07:52:01 51°13.721 2°55.728 -999 -999 -999 -999 -999
2007-01-26 07:52:06 51°13.726 2°55.727 -999 -999 -999 -999 -999
2007-01-26 07:52:11 51°13.73 2°55.725 -999 -999 -999 -999 -999
2007-01-26 07:52:16 51°13.735 2°55.722 -999 -999 -999 -999 -999
2007-01-26 07:52:21 51°13.74 2°55.718 -999 -999 -999 -999 -999
2007-01-26 07:52:26 51°13.745 2°55.714 -999 -999 -999 -999 -999
2007-01-26 07:52:31 51°13.75 2°55.71 -999 -999 -999 -999 -999
2007-01-26 07:52:36 51°13.755 2°55.705 -999 -999 -999 -999 -999
2007-01-26 07:52:41 51°13.761 2°55.7 -999 -999 -999 -999 -999
2007-01-26 07:52:46 51°13.767 2°55.695 -999 -999 -999 -999 -999
2007-01-26 07:52:51 51°13.773 2°55.689 -999 -999 -999 -999 -999
2007-01-26 07:52:56 51°13.779 2°55.684 -999 -999 -999 -999 -999
2007-01-26 07:53:01 51°13.786 2°55.678 -999 -999 -999 -999 -999
2007-01-26 07:53:06 51°13.793 2°55.672 -999 -999 -999 -999 -999
2007-01-26 07:53:11 51°13.8 2°55.667 -999 -999 -999 -999 -999
2007-01-26 07:53:16 51°13.807 2°55.661 -999 -999 -999 -999 -999
2007-01-26 07:53:21 51°13.814 2°55.655 -999 -999 -999 -999 -999
2007-01-26 07:53:26 51°13.821 2°55.649 -999 -999 -999 -999 -999
2007-01-26 07:53:31 51°13.829 2°55.644 -999 -999 -999 -999 -999
2007-01-26 07:53:36 51°13.837 2°55.638 -999 -999 -999 -999 -999
2007-01-26 07:53:41 51°13.845 2°55.631 -999 -999 -999 -999 -999
2007-01-26 07:53:46 51°13.853 2°55.625 -999 -999 -999 -999 -999
2007-01-26 07:53:51 51°13.862 2°55.619 -999 -999 -999 -999 -999
2007-01-26 07:53:56 51°13.871 2°55.613 -999 -999 -999 -999 -999
2007-01-26 07:54:01 51°13.88 2°55.606 -999 -999 -999 -999 -999
2007-01-26 07:54:06 51°13.889 2°55.599 -999 -999 -999 -999 -999
2007-01-26 07:54:11 51°13.898 2°55.592 -999 -999 -999 -999 -999
2007-01-26 07:54:16 51°13.907 2°55.585 -999 -999 -999 -999 -999
2007-01-26 07:54:21 51°13.917 2°55.578 -999 -999 -999 -999 -999
2007-01-26 07:54:26 51°13.926 2°55.571 -999 -999 -999 -999 -999
2007-01-26 07:54:31 51°13.936 2°55.563 -999 -999 -999 -999 -999
2007-01-26 07:54:36 51°13.945 2°55.556 -999 -999 -999 -999 -999
2007-01-26 07:54:41 51°13.955 2°55.549 -999 -999 -999 -999 -999
2007-01-26 07:54:46 51°13.965 2°55.542 -999 -999 -999 -999 -999
2007-01-26 07:54:51 51°13.974 2°55.535 -999 -999 -999 -999 -999
2007-01-26 07:54:56 51°13.984 2°55.527 -999 -999 -999 -999 -999
2007-01-26 07:55:01 51°13.994 2°55.52 -999 -999 -999 -999 -999
2007-01-26 07:55:06 51°14.003 2°55.513 -999 -999 -999 -999 -999
2007-01-26 07:55:11 51°14.013 2°55.506 -999 -999 -999 -999 -999
2007-01-26 07:55:16 51°14.023 2°55.499 -999 -999 -999 -999 -999
2007-01-26 07:55:21 51°14.033 2°55.493 -999 -999 -999 -999 -999
2007-01-26 07:55:26 51°14.043 2°55.486 -999 -999 -999 -999 -999
2007-01-26 07:55:31 51°14.053 2°55.478 -999 -999 -999 -999 -999
2007-01-26 07:55:36 51°14.063 2°55.471 -999 -999 -999 -999 -999
2007-01-26 07:55:41 51°14.073 2°55.464 -999 -999 -999 -999 -999
2007-01-26 07:55:46 51°14.083 2°55.457 -999 -999 -999 -999 -999
2007-01-26 07:55:51 51°14.093 2°55.449 -999 -999 -999 -999 -999
2007-01-26 07:55:56 51°14.103 2°55.442 -999 -999 -999 -999 -999
2007-01-26 07:56:01 51°14.112 2°55.434 -999 -999 -999 -999 -999
2007-01-26 07:56:06 51°14.122 2°55.426 -999 -999 -999 -999 -999
2007-01-26 07:56:11 51°14.132 2°55.418 -999 -999 -999 -999 -999
2007-01-26 07:56:16 51°14.141 2°55.409 -999 -999 -999 -999 -999
2007-01-26 07:56:21 51°14.151 2°55.401 -999 -999 -999 -999 -999
2007-01-26 07:56:26 51°14.16 2°55.392 -999 -999 -999 -999 -999
2007-01-26 07:56:31 51°14.17 2°55.382 -999 -999 -999 -999 -999
2007-01-26 07:56:36 51°14.179 2°55.373 -999 -999 -999 -999 -999
2007-01-26 07:56:41 51°14.188 2°55.362 -999 -999 -999 -999 -999
2007-01-26 07:56:46 51°14.197 2°55.352 -999 -999 -999 -999 -999
2007-01-26 07:56:51 51°14.205 2°55.341 -999 -999 -999 -999 -999
2007-01-26 07:56:56 51°14.214 2°55.33 -999 -999 -999 -999 -999
2007-01-26 07:57:01 51°14.222 2°55.319 -999 -999 -999 -999 -999
2007-01-26 07:57:06 51°14.23 2°55.307 -999 -999 -999 -999 -999
2007-01-26 07:57:11 51°14.238 2°55.296 -999 -999 -999 -999 -999
2007-01-26 07:57:16 51°14.246 2°55.283 -999 -999 -999 -999 -999
2007-01-26 07:57:21 51°14.254 2°55.271 -999 -999 -999 -999 -999
2007-01-26 07:57:26 51°14.262 2°55.257 -999 -999 -999 -999 -999
2007-01-26 07:57:31 51°14.271 2°55.244 -999 -999 -999 -999 -999
2007-01-26 07:57:36 51°14.279 2°55.23 -999 -999 -999 -999 -999
2007-01-26 07:57:41 51°14.287 2°55.217 -999 -999 -999 -999 -999
2007-01-26 07:57:46 51°14.295 2°55.202 -999 -999 -999 -999 -999
2007-01-26 07:57:51 51°14.304 2°55.188 -999 -999 -999 -999 -999
2007-01-26 07:57:56 51°14.312 2°55.173 -999 -999 -999 -999 -999
2007-01-26 07:58:01 51°14.321 2°55.158 -999 -999 -999 -999 -999
2007-01-26 07:58:06 51°14.33 2°55.144 -999 -999 -999 -999 -999
2007-01-26 07:58:11 51°14.339 2°55.129 -999 -999 -999 -999 -999
2007-01-26 07:58:16 51°14.349 2°55.115 -999 -999 -999 -999 -999
2007-01-26 07:58:21 51°14.358 2°55.102 -999 -999 -999 -999 -999
2007-01-26 07:58:26 51°14.366 2°55.09 -999 -999 -999 -999 -999
2007-01-26 07:58:31 51°14.374 2°55.078 -999 -999 -999 -999 -999
2007-01-26 07:58:36 51°14.382 2°55.067 -999 -999 -999 -999 -999
2007-01-26 07:58:41 51°14.39 2°55.057 -999 -999 -999 -999 -999
2007-01-26 07:58:46 51°14.398 2°55.048 -999 -999 -999 -999 -999
2007-01-26 07:58:51 51°14.406 2°55.038 -999 -999 -999 -999 -999
2007-01-26 07:58:56 51°14.413 2°55.029 -999 -999 -999 -999 -999
2007-01-26 07:59:01 51°14.422 2°55.021 -999 -999 -999 -999 -999
2007-01-26 07:59:06 51°14.43 2°55.013 -999 -999 -999 -999 -999
2007-01-26 07:59:11 51°14.439 2°55.006 -999 -999 -999 -999 -999
2007-01-26 07:59:16 51°14.449 2°54.998 -999 -999 -999 -999 -999
2007-01-26 07:59:21 51°14.46 2°54.991 -999 -999 -999 -999 -999
2007-01-26 07:59:26 51°14.471 2°54.984 -999 -999 -999 -999 -999
2007-01-26 07:59:31 51°14.482 2°54.977 -999 -999 -999 -999 -999
2007-01-26 07:59:36 51°14.494 2°54.971 -999 -999 -999 -999 -999
2007-01-26 07:59:41 51°14.506 2°54.965 -999 -999 -999 -999 -999
2007-01-26 07:59:46 51°14.519 2°54.959 -999 -999 -999 -999 -999
2007-01-26 07:59:51 51°14.532 2°54.954 -999 -999 -999 -999 -999
2007-01-26 07:59:56 51°14.545 2°54.948 -999 -999 -999 -999 -999
2007-01-26 08:00:01 51°14.558 2°54.942 -999 -999 -999 -999 -999
2007-01-26 08:00:06 51°14.57 2°54.936 -999 -999 -999 -999 -999
2007-01-26 08:00:11 51°14.583 2°54.929 -999 -999 -999 -999 -999
2007-01-26 08:00:16 51°14.596 2°54.922 -999 -999 -999 -999 -999
2007-01-26 08:00:21 51°14.609 2°54.915 -999 -999 -999 -999 -999
2007-01-26 08:00:26 51°14.622 2°54.908 -999 -999 -999 -999 -999
2007-01-26 08:00:31 51°14.636 2°54.9 -999 -999 -999 -999 -999
2007-01-26 08:00:36 51°14.65 2°54.894 -999 -999 -999 -999 -999
2007-01-26 08:00:41 51°14.664 2°54.887 -999 -999 -999 -999 -999
2007-01-26 08:00:46 51°14.679 2°54.881 -999 -999 -999 -999 -999
2007-01-26 08:00:51 51°14.693 2°54.873 -999 -999 -999 -999 -999
2007-01-26 08:00:56 51°14.707 2°54.864 -999 -999 -999 -999 -999
2007-01-26 08:01:01 51°14.721 2°54.855 -999 -999 -999 -999 -999
2007-01-26 08:01:06 51°14.735 2°54.844 -999 -999 -999 -999 -999
2007-01-26 08:01:11 51°14.748 2°54.833 -999 -999 -999 -999 -999
2007-01-26 08:01:16 51°14.762 2°54.821 -999 -999 -999 -999 -999
2007-01-26 08:01:21 51°14.775 2°54.809 -999 -999 -999 -999 -999
2007-01-26 08:01:26 51°14.789 2°54.797 -999 -999 -999 -999 -999
2007-01-26 08:01:31 51°14.803 2°54.783 -999 -999 -999 -999 -999
2007-01-26 08:01:36 51°14.817 2°54.77 -999 -999 -999 -999 -999
2007-01-26 08:01:41 51°14.832 2°54.757 -999 -999 -999 -999 -999
2007-01-26 08:01:46 51°14.846 2°54.743 -999 -999 -999 -999 -999
2007-01-26 08:01:51 51°14.861 2°54.729 -999 -999 -999 -999 -999
2007-01-26 08:01:56 51°14.875 2°54.715 -999 -999 -999 -999 -999
2007-01-26 08:02:01 51°14.89 2°54.701 -999 -999 -999 -999 -999
2007-01-26 08:02:06 51°14.905 2°54.687 -999 -999 -999 -999 -999
2007-01-26 08:02:11 51°14.92 2°54.672 -999 -999 -999 -999 -999
2007-01-26 08:02:16 51°14.935 2°54.658 -999 -999 -999 -999 -999
2007-01-26 08:02:21 51°14.951 2°54.643 -999 -999 -999 -999 -999
2007-01-26 08:02:26 51°14.966 2°54.629 -999 -999 -999 -999 -999
2007-01-26 08:02:31 51°14.982 2°54.614 -999 -999 -999 -999 -999
2007-01-26 08:02:36 51°14.998 2°54.6 -999 -999 -999 -999 -999
2007-01-26 08:02:41 51°15.013 2°54.585 -999 -999 -999 -999 -999
2007-01-26 08:02:46 51°15.029 2°54.57 -999 -999 -999 -999 -999
2007-01-26 08:02:51 51°15.044 2°54.554 -999 -999 -999 -999 -999
2007-01-26 08:02:56 51°15.059 2°54.538 -999 -999 -999 -999 -999
2007-01-26 08:03:01 51°15.074 2°54.522 -999 -999 -999 -999 -999
2007-01-26 08:03:06 51°15.09 2°54.507 -999 -999 -999 -999 -999
2007-01-26 08:03:11 51°15.105 2°54.491 -999 -999 -999 -999 -999
2007-01-26 08:03:16 51°15.12 2°54.474 -999 -999 -999 -999 -999
2007-01-26 08:03:21 51°15.135 2°54.458 -999 -999 -999 -999 -999
2007-01-26 08:03:26 51°15.15 2°54.441 -999 -999 -999 -999 -999
2007-01-26 08:03:31 51°15.164 2°54.424 -999 -999 -999 -999 -999
2007-01-26 08:03:36 51°15.179 2°54.407 -999 -999 -999 -999 -999
2007-01-26 08:03:41 51°15.194 2°54.39 -999 -999 -999 -999 -999
2007-01-26 08:03:46 51°15.21 2°54.374 -999 -999 -999 -999 -999
2007-01-26 08:03:51 51°15.225 2°54.358 -999 -999 -999 -999 -999
2007-01-26 08:03:56 51°15.24 2°54.342 -999 -999 -999 -999 -999
2007-01-26 08:04:01 51°15.255 2°54.325 -999 -999 -999 -999 -999
2007-01-26 08:04:06 51°15.27 2°54.309 -999 -999 -999 -999 -999
2007-01-26 08:04:11 51°15.285 2°54.293 -999 -999 -999 -999 -999
2007-01-26 08:04:16 51°15.3 2°54.276 -999 -999 -999 -999 -999
2007-01-26 08:04:21 51°15.315 2°54.26 -999 -999 -999 -999 -999
2007-01-26 08:04:26 51°15.33 2°54.243 -999 -999 -999 -999 -999
2007-01-26 08:04:31 51°15.346 2°54.226 -999 -999 -999 -999 -999
2007-01-26 08:04:36 51°15.361 2°54.21 -999 -999 -999 -999 -999
2007-01-26 08:04:41 51°15.376 2°54.194 -999 -999 -999 -999 -999
2007-01-26 08:04:46 51°15.392 2°54.178 -999 -999 -999 -999 -999
2007-01-26 08:04:51 51°15.407 2°54.161 -999 -999 -999 -999 -999
2007-01-26 08:04:56 51°15.422 2°54.145 -999 -999 -999 -999 -999
2007-01-26 08:05:01 51°15.437 2°54.128 -999 -999 -999 -999 -999
2007-01-26 08:05:06 51°15.452 2°54.112 -999 -999 -999 -999 -999
2007-01-26 08:05:11 51°15.468 2°54.096 -999 -999 -999 -999 -999
2007-01-26 08:05:16 51°15.483 2°54.08 -999 -999 -999 -999 -999
2007-01-26 08:05:21 51°15.498 2°54.064 -999 -999 -999 -999 -999
2007-01-26 08:05:26 51°15.513 2°54.047 -999 -999 -999 -999 -999
2007-01-26 08:05:31 51°15.528 2°54.031 -999 -999 -999 -999 -999
2007-01-26 08:05:36 51°15.543 2°54.014 -999 -999 -999 -999 -999
2007-01-26 08:05:41 51°15.558 2°53.998 -999 -999 -999 -999 -999
2007-01-26 08:05:46 51°15.573 2°53.981 -999 -999 -999 -999 -999
2007-01-26 08:05:51 51°15.588 2°53.965 -999 -999 -999 -999 -999
2007-01-26 08:05:56 51°15.604 2°53.949 -999 -999 -999 -999 -999
2007-01-26 08:06:01 51°15.619 2°53.933 -999 -999 -999 -999 -999
2007-01-26 08:06:06 51°15.635 2°53.917 -999 -999 -999 -999 -999
2007-01-26 08:06:11 51°15.65 2°53.901 -999 -999 -999 -999 -999
2007-01-26 08:06:16 51°15.665 2°53.885 -999 -999 -999 -999 -999
2007-01-26 08:06:21 51°15.681 2°53.869 -999 -999 -999 -999 -999
2007-01-26 08:06:26 51°15.696 2°53.853 -999 -999 -999 -999 -999
2007-01-26 08:06:31 51°15.712 2°53.836 -999 -999 -999 -999 -999
2007-01-26 08:06:36 51°15.727 2°53.821 -999 -999 -999 -999 -999
2007-01-26 08:06:41 51°15.743 2°53.805 -999 -999 -999 -999 -999
2007-01-26 08:06:46 51°15.758 2°53.789 -999 -999 -999 -999 -999
2007-01-26 08:06:51 51°15.774 2°53.774 -999 -999 -999 -999 -999
2007-01-26 08:06:56 51°15.789 2°53.758 -999 -999 -999 -999 -999
2007-01-26 08:07:01 51°15.805 2°53.743 -999 -999 -999 -999 -999
2007-01-26 08:07:06 51°15.821 2°53.727 -999 -999 -999 -999 -999
2007-01-26 08:07:11 51°15.836 2°53.711 -999 -999 -999 -999 -999
2007-01-26 08:07:16 51°15.852 2°53.694 -999 -999 -999 -999 -999
2007-01-26 08:07:21 51°15.867 2°53.678 -999 -999 -999 -999 -999
2007-01-26 08:07:26 51°15.882 2°53.662 -999 -999 -999 -999 -999
2007-01-26 08:07:31 51°15.897 2°53.646 -999 -999 -999 -999 -999
2007-01-26 08:07:36 51°15.913 2°53.629 -999 -999 -999 -999 -999
2007-01-26 08:07:41 51°15.928 2°53.613 -999 -999 -999 -999 -999
2007-01-26 08:07:46 51°15.943 2°53.597 -999 -999 -999 -999 -999
2007-01-26 08:07:51 51°15.959 2°53.582 -999 -999 -999 -999 -999
2007-01-26 08:07:56 51°15.974 2°53.566 -999 -999 -999 -999 -999
2007-01-26 08:08:01 51°15.99 2°53.55 -999 -999 -999 -999 -999
2007-01-26 08:08:06 51°16.005 2°53.534 -999 -999 -999 -999 -999
2007-01-26 08:08:11 51°16.021 2°53.518 -999 -999 -999 -999 -999
2007-01-26 08:08:16 51°16.036 2°53.501 -999 -999 -999 -999 -999
2007-01-26 08:08:21 51°16.051 2°53.485 -999 -999 -999 -999 -999
2007-01-26 08:08:26 51°16.066 2°53.468 -999 -999 -999 -999 -999
2007-01-26 08:08:31 51°16.081 2°53.452 -999 -999 -999 -999 -999
2007-01-26 08:08:36 51°16.097 2°53.436 -999 -999 -999 -999 -999
2007-01-26 08:08:41 51°16.112 2°53.42 -999 -999 -999 -999 -999
2007-01-26 08:08:46 51°16.128 2°53.404 -999 -999 -999 -999 -999
2007-01-26 08:08:51 51°16.143 2°53.389 -999 -999 -999 -999 -999
2007-01-26 08:08:56 51°16.159 2°53.373 -999 -999 -999 -999 -999
2007-01-26 08:09:01 51°16.174 2°53.358 -999 -999 -999 -999 -999
2007-01-26 08:09:06 51°16.19 2°53.342 -999 -999 -999 -999 -999
2007-01-26 08:09:11 51°16.206 2°53.328 -999 -999 -999 -999 -999
2007-01-26 08:09:16 51°16.223 2°53.314 -999 -999 -999 -999 -999
2007-01-26 08:09:21 51°16.239 2°53.3 -999 -999 -999 -999 -999
2007-01-26 08:09:26 51°16.255 2°53.285 -999 -999 -999 -999 -999
2007-01-26 08:09:31 51°16.271 2°53.271 -999 -999 -999 -999 -999
2007-01-26 08:09:36 51°16.287 2°53.257 -999 -999 -999 -999 -999
2007-01-26 08:09:41 51°16.303 2°53.243 -999 -999 -999 -999 -999
2007-01-26 08:09:46 51°16.319 2°53.229 -999 -999 -999 -999 -999
2007-01-26 08:09:51 51°16.335 2°53.215 -999 -999 -999 -999 -999
2007-01-26 08:09:56 51°16.352 2°53.2 -999 -999 -999 -999 -999
2007-01-26 08:10:01 51°16.368 2°53.186 -999 -999 -999 -999 -999
2007-01-26 08:10:06 51°16.384 2°53.172 -999 -999 -999 -999 -999
2007-01-26 08:10:11 51°16.4 2°53.158 -999 -999 -999 -999 -999
2007-01-26 08:10:16 51°16.416 2°53.143 -999 -999 -999 -999 -999
2007-01-26 08:10:21 51°16.432 2°53.129 -999 -999 -999 -999 -999
2007-01-26 08:10:26 51°16.449 2°53.115 -999 -999 -999 -999 -999
2007-01-26 08:10:31 51°16.465 2°53.101 -999 -999 -999 -999 -999
2007-01-26 08:10:36 51°16.481 2°53.087 -999 -999 -999 -999 -999
2007-01-26 08:10:41 51°16.498 2°53.073 -999 -999 -999 -999 -999
2007-01-26 08:10:46 51°16.514 2°53.058 -999 -999 -999 -999 -999
2007-01-26 08:10:51 51°16.53 2°53.044 -999 -999 -999 -999 -999
2007-01-26 08:10:56 51°16.547 2°53.031 -999 -999 -999 -999 -999
2007-01-26 08:11:01 51°16.563 2°53.017 -999 -999 -999 -999 -999
2007-01-26 08:11:06 51°16.579 2°53.002 -999 -999 -999 -999 -999
2007-01-26 08:11:11 51°16.596 2°52.989 -999 -999 -999 -999 -999
2007-01-26 08:11:16 51°16.612 2°52.975 -999 -999 -999 -999 -999
2007-01-26 08:11:21 51°16.629 2°52.962 -999 -999 -999 -999 -999
2007-01-26 08:11:26 51°16.645 2°52.948 -999 -999 -999 -999 -999
2007-01-26 08:11:31 51°16.661 2°52.934 -999 -999 -999 -999 -999
2007-01-26 08:11:36 51°16.677 2°52.92 -999 -999 -999 -999 -999
2007-01-26 08:11:41 51°16.694 2°52.907 -999 -999 -999 -999 -999
2007-01-26 08:11:46 51°16.71 2°52.893 -999 -999 -999 -999 -999
2007-01-26 08:11:51 51°16.726 2°52.88 -999 -999 -999 -999 -999
2007-01-26 08:11:56 51°16.742 2°52.866 -999 -999 -999 -999 -999
2007-01-26 08:12:01 51°16.758 2°52.851 -999 -999 -999 -999 -999
2007-01-26 08:12:06 51°16.774 2°52.836 -999 -999 -999 -999 -999
2007-01-26 08:12:11 51°16.79 2°52.821 -999 -999 -999 -999 -999
2007-01-26 08:12:16 51°16.806 2°52.807 -999 -999 -999 -999 -999
2007-01-26 08:12:21 51°16.821 2°52.793 -999 -999 -999 -999 -999
2007-01-26 08:12:26 51°16.837 2°52.778 -999 -999 -999 -999 -999
2007-01-26 08:12:31 51°16.854 2°52.764 -999 -999 -999 -999 -999
2007-01-26 08:12:36 51°16.869 2°52.75 -999 -999 -999 -999 -999
2007-01-26 08:12:41 51°16.885 2°52.735 -999 -999 -999 -999 -999
2007-01-26 08:12:46 51°16.902 2°52.721 -999 -999 -999 -999 -999
2007-01-26 08:12:51 51°16.917 2°52.706 -999 -999 -999 -999 -999
2007-01-26 08:12:56 51°16.934 2°52.692 -999 -999 -999 -999 -999
2007-01-26 08:13:01 51°16.95 2°52.677 -999 -999 -999 -999 -999
2007-01-26 08:13:06 51°16.966 2°52.662 -999 -999 -999 -999 -999
2007-01-26 08:13:11 51°16.982 2°52.647 -999 -999 -999 -999 -999
2007-01-26 08:13:16 51°16.998 2°52.633 -999 -999 -999 -999 -999
2007-01-26 08:13:21 51°17.014 2°52.619 -999 -999 -999 -999 -999
2007-01-26 08:13:26 51°17.03 2°52.605 -999 -999 -999 -999 -999
2007-01-26 08:13:31 51°17.047 2°52.59 -999 -999 -999 -999 -999
2007-01-26 08:13:36 51°17.063 2°52.576 -999 -999 -999 -999 -999
2007-01-26 08:13:41 51°17.079 2°52.563 -999 -999 -999 -999 -999
2007-01-26 08:13:46 51°17.096 2°52.549 -999 -999 -999 -999 -999
2007-01-26 08:13:51 51°17.112 2°52.535 -999 -999 -999 -999 -999
2007-01-26 08:13:56 51°17.128 2°52.52 -999 -999 -999 -999 -999
2007-01-26 08:14:01 51°17.144 2°52.506 -999 -999 -999 -999 -999
2007-01-26 08:14:06 51°17.16 2°52.491 -999 -999 -999 -999 -999
2007-01-26 08:14:11 51°17.177 2°52.478 -999 -999 -999 -999 -999
2007-01-26 08:14:16 51°17.193 2°52.463 -999 -999 -999 -999 -999
2007-01-26 08:14:21 51°17.21 2°52.451 -999 -999 -999 -999 -999
2007-01-26 08:14:26 51°17.228 2°52.44 -999 -999 -999 -999 -999
2007-01-26 08:14:31 51°17.246 2°52.432 -999 -999 -999 -999 -999
2007-01-26 08:14:36 51°17.264 2°52.424 -999 -999 -999 -999 -999
2007-01-26 08:14:41 51°17.283 2°52.419 -999 -999 -999 -999 -999
2007-01-26 08:14:46 51°17.302 2°52.413 -999 -999 -999 -999 -999
2007-01-26 08:14:51 51°17.321 2°52.408 -999 -999 -999 -999 -999
2007-01-26 08:14:56 51°17.34 2°52.403 -999 -999 -999 -999 -999
2007-01-26 08:15:01 51°17.358 2°52.398 -999 -999 -999 -999 -999
2007-01-26 08:15:06 51°17.377 2°52.393 -999 -999 -999 -999 -999
2007-01-26 08:15:11 51°17.396 2°52.39 -999 -999 -999 -999 -999
2007-01-26 08:15:16 51°17.415 2°52.386 -999 -999 -999 -999 -999
2007-01-26 08:15:21 51°17.434 2°52.384 -999 -999 -999 -999 -999
2007-01-26 08:15:26 51°17.454 2°52.381 -999 -999 -999 -999 -999
2007-01-26 08:15:31 51°17.473 2°52.378 -999 -999 -999 -999 -999
2007-01-26 08:15:36 51°17.492 2°52.376 -999 -999 -999 -999 -999
2007-01-26 08:15:41 51°17.511 2°52.374 -999 -999 -999 -999 -999
2007-01-26 08:15:46 51°17.53 2°52.372 -999 -999 -999 -999 -999
2007-01-26 08:15:51 51°17.55 2°52.369 -999 -999 -999 -999 -999
2007-01-26 08:15:56 51°17.569 2°52.368 -999 -999 -999 -999 -999
2007-01-26 08:16:01 51°17.588 2°52.366 -999 -999 -999 -999 -999
2007-01-26 08:16:06 51°17.608 2°52.364 -999 -999 -999 -999 -999
2007-01-26 08:16:11 51°17.627 2°52.362 -999 -999 -999 -999 -999
2007-01-26 08:16:16 51°17.647 2°52.362 -999 -999 -999 -999 -999
2007-01-26 08:16:21 51°17.666 2°52.359 -999 -999 -999 -999 -999
2007-01-26 08:16:26 51°17.686 2°52.358 -999 -999 -999 -999 -999
2007-01-26 08:16:31 51°17.705 2°52.356 -999 -999 -999 -999 -999
2007-01-26 08:16:36 51°17.724 2°52.356 -999 -999 -999 -999 -999
2007-01-26 08:16:41 51°17.743 2°52.354 -999 -999 -999 -999 -999
2007-01-26 08:16:46 51°17.763 2°52.353 -999 -999 -999 -999 -999
2007-01-26 08:16:51 51°17.782 2°52.352 -999 -999 -999 -999 -999
2007-01-26 08:16:56 51°17.802 2°52.351 -999 -999 -999 -999 -999
2007-01-26 08:17:01 51°17.821 2°52.35 -999 -999 -999 -999 -999
2007-01-26 08:17:06 51°17.84 2°52.349 -999 -999 -999 -999 -999
2007-01-26 08:17:11 51°17.859 2°52.346 -999 -999 -999 -999 -999
2007-01-26 08:17:16 51°17.879 2°52.346 -999 -999 -999 -999 -999
2007-01-26 08:17:21 51°17.898 2°52.343 -999 -999 -999 -999 -999
2007-01-26 08:17:26 51°17.918 2°52.343 -999 -999 -999 -999 -999
2007-01-26 08:17:31 51°17.937 2°52.339 -999 -999 -999 -999 -999
2007-01-26 08:17:36 51°17.956 2°52.34 -999 -999 -999 -999 -999
2007-01-26 08:17:41 51°17.976 2°52.337 -999 -999 -999 -999 -999
2007-01-26 08:17:46 51°17.995 2°52.336 -999 -999 -999 -999 -999
2007-01-26 08:17:51 51°18.014 2°52.333 -999 -999 -999 -999 -999
2007-01-26 08:17:56 51°18.034 2°52.332 -999 -999 -999 -999 -999
2007-01-26 08:18:01 51°18.054 2°52.33 -999 -999 -999 -999 -999
2007-01-26 08:18:06 51°18.073 2°52.328 -999 -999 -999 -999 -999
2007-01-26 08:18:11 51°18.093 2°52.326 -999 -999 -999 -999 -999
2007-01-26 08:18:16 51°18.112 2°52.325 -999 -999 -999 -999 -999
2007-01-26 08:18:21 51°18.131 2°52.323 -999 -999 -999 -999 -999
2007-01-26 08:18:26 51°18.151 2°52.325 -999 -999 -999 -999 -999
2007-01-26 08:18:31 51°18.171 2°52.329 -999 -999 -999 -999 -999
2007-01-26 08:18:36 51°18.19 2°52.332 -999 -999 -999 -999 -999
2007-01-26 08:18:41 51°18.208 2°52.341 -999 -999 -999 -999 -999
2007-01-26 08:18:46 51°18.227 2°52.351 -999 -999 -999 -999 -999
2007-01-26 08:18:51 51°18.244 2°52.364 -999 -999 -999 -999 -999
2007-01-26 08:18:56 51°18.261 2°52.379 -999 -999 -999 -999 -999
2007-01-26 08:19:01 51°18.278 2°52.395 -999 -999 -999 -999 -999
2007-01-26 08:19:06 51°18.294 2°52.411 -999 -999 -999 -999 -999
2007-01-26 08:19:11 51°18.31 2°52.428 -999 -999 -999 -999 -999
2007-01-26 08:19:16 51°18.326 2°52.447 -999 -999 -999 -999 -999
2007-01-26 08:19:21 51°18.341 2°52.467 -999 -999 -999 -999 -999
2007-01-26 08:19:26 51°18.354 2°52.49 -999 -999 -999 -999 -999
2007-01-26 08:19:31 51°18.368 2°52.512 -999 -999 -999 -999 -999
2007-01-26 08:19:36 51°18.379 2°52.536 -999 -999 -999 -999 -999
2007-01-26 08:19:41 51°18.39 2°52.561 -999 -999 -999 -999 -999
2007-01-26 08:19:46 51°18.4 2°52.588 -999 -999 -999 -999 -999
2007-01-26 08:19:51 51°18.408 2°52.616 -999 -999 -999 -999 -999
2007-01-26 08:19:56 51°18.417 2°52.644 -999 -999 -999 -999 -999
2007-01-26 08:20:01 51°18.423 2°52.672 -999 -999 -999 -999 -999
2007-01-26 08:20:06 51°18.43 2°52.7 -999 -999 -999 -999 -999
2007-01-26 08:20:11 51°18.437 2°52.73 -999 -999 -999 -999 -999
2007-01-26 08:20:16 51°18.444 2°52.758 -999 -999 -999 -999 -999
2007-01-26 08:20:21 51°18.449 2°52.788 -999 -999 -999 -999 -999
2007-01-26 08:20:26 51°18.457 2°52.817 -999 -999 -999 -999 -999
2007-01-26 08:20:31 51°18.461 2°52.846 -999 -999 -999 -999 -999
2007-01-26 08:20:36 51°18.467 2°52.876 -999 -999 -999 -999 -999
2007-01-26 08:20:41 51°18.472 2°52.906 -999 -999 -999 -999 -999
2007-01-26 08:20:46 51°18.478 2°52.935 -999 -999 -999 -999 -999
2007-01-26 08:20:51 51°18.483 2°52.965 -999 -999 -999 -999 -999
2007-01-26 08:20:56 51°18.489 2°52.995 -999 -999 -999 -999 -999
2007-01-26 08:21:01 51°18.495 2°53.026 -999 -999 -999 -999 -999
2007-01-26 08:21:06 51°18.5 2°53.056 -999 -999 -999 -999 -999
2007-01-26 08:21:11 51°18.504 2°53.087 -999 -999 -999 -999 -999
2007-01-26 08:21:16 51°18.509 2°53.118 -999 -999 -999 -999 -999
2007-01-26 08:21:21 51°18.515 2°53.148 -999 -999 -999 -999 -999
2007-01-26 08:21:26 51°18.52 2°53.178 -999 -999 -999 -999 -999
2007-01-26 08:21:31 51°18.523 2°53.209 -999 -999 -999 -999 -999
2007-01-26 08:21:36 51°18.528 2°53.24 -999 -999 -999 -999 -999
2007-01-26 08:21:41 51°18.533 2°53.27 -999 -999 -999 -999 -999
2007-01-26 08:21:46 51°18.538 2°53.3 -999 -999 -999 -999 -999
2007-01-26 08:21:51 51°18.546 2°53.33 -999 -999 -999 -999 -999
2007-01-26 08:21:56 51°18.553 2°53.359 -999 -999 -999 -999 -999
2007-01-26 08:22:01 51°18.56 2°53.388 -999 -999 -999 -999 -999
2007-01-26 08:22:06 51°18.567 2°53.416 -999 -999 -999 -999 -999
2007-01-26 08:22:11 51°18.573 2°53.446 -999 -999 -999 -999 -999
2007-01-26 08:22:16 51°18.581 2°53.475 -999 -999 -999 -999 -999
2007-01-26 08:22:21 51°18.587 2°53.505 -999 -999 -999 -999 -999
2007-01-26 08:22:26 51°18.594 2°53.534 -999 -999 -999 -999 -999
2007-01-26 08:22:31 51°18.599 2°53.564 -999 -999 -999 -999 -999
2007-01-26 08:22:36 51°18.607 2°53.593 -999 -999 -999 -999 -999
2007-01-26 08:22:41 51°18.614 2°53.623 -999 -999 -999 -999 -999
2007-01-26 08:22:46 51°18.62 2°53.652 -999 -999 -999 -999 -999
2007-01-26 08:22:51 51°18.628 2°53.681 -999 -999 -999 -999 -999
2007-01-26 08:22:56 51°18.637 2°53.708 -999 -999 -999 -999 -999
2007-01-26 08:23:01 51°18.644 2°53.737 -999 -999 -999 -999 -999
2007-01-26 08:23:06 51°18.653 2°53.765 -999 -999 -999 -999 -999
2007-01-26 08:23:11 51°18.658 2°53.795 -999 -999 -999 -999 -999
2007-01-26 08:23:16 51°18.666 2°53.823 -999 -999 -999 -999 -999
2007-01-26 08:23:21 51°18.672 2°53.853 -999 -999 -999 -999 -999
2007-01-26 08:23:26 51°18.678 2°53.882 -999 -999 -999 -999 -999
2007-01-26 08:23:31 51°18.685 2°53.912 -999 -999 -999 -999 -999
2007-01-26 08:23:36 51°18.694 2°53.941 -999 -999 -999 -999 -999
2007-01-26 08:23:41 51°18.699 2°53.971 -999 -999 -999 -999 -999
2007-01-26 08:23:46 51°18.707 2°54 -999 -999 -999 -999 -999
2007-01-26 08:23:51 51°18.714 2°54.029 -999 -999 -999 -999 -999
2007-01-26 08:23:56 51°18.721 2°54.059 -999 -999 -999 -999 -999
2007-01-26 08:24:01 51°18.727 2°54.089 -999 -999 -999 -999 -999
2007-01-26 08:24:06 51°18.735 2°54.118 -999 -999 -999 -999 -999
2007-01-26 08:24:11 51°18.741 2°54.148 -999 -999 -999 -999 -999
2007-01-26 08:24:16 51°18.748 2°54.177 -999 -999 -999 -999 -999
2007-01-26 08:24:21 51°18.754 2°54.206 -999 -999 -999 -999 -999
2007-01-26 08:24:26 51°18.76 2°54.234 -999 -999 -999 -999 -999
2007-01-26 08:24:31 51°18.767 2°54.263 -999 -999 -999 -999 -999
2007-01-26 08:24:36 51°18.775 2°54.291 -999 -999 -999 -999 -999
2007-01-26 08:24:41 51°18.783 2°54.319 -999 -999 -999 -999 -999
2007-01-26 08:24:46 51°18.79 2°54.347 -999 -999 -999 -999 -999
2007-01-26 08:24:51 51°18.798 2°54.375 -999 -999 -999 -999 -999
2007-01-26 08:24:56 51°18.805 2°54.404 -999 -999 -999 -999 -999
2007-01-26 08:25:01 51°18.813 2°54.432 -999 -999 -999 -999 -999
2007-01-26 08:25:06 51°18.822 2°54.46 -999 -999 -999 -999 -999
2007-01-26 08:25:11 51°18.83 2°54.488 -999 -999 -999 -999 -999
2007-01-26 08:25:16 51°18.837 2°54.517 -999 -999 -999 -999 -999
2007-01-26 08:25:21 51°18.847 2°54.544 -999 -999 -999 -999 -999
2007-01-26 08:25:26 51°18.855 2°54.573 -999 -999 -999 -999 -999
2007-01-26 08:25:31 51°18.864 2°54.601 -999 -999 -999 -999 -999
2007-01-26 08:25:36 51°18.871 2°54.63 -999 -999 -999 -999 -999
2007-01-26 08:25:41 51°18.878 2°54.659 -999 -999 -999 -999 -999
2007-01-26 08:25:46 51°18.886 2°54.687 -999 -999 -999 -999 -999
2007-01-26 08:25:51 51°18.893 2°54.716 -999 -999 -999 -999 -999
2007-01-26 08:25:56 51°18.901 2°54.745 -999 -999 -999 -999 -999
2007-01-26 08:26:01 51°18.906 2°54.775 -999 -999 -999 -999 -999
2007-01-26 08:26:06 51°18.915 2°54.802 -999 -999 -999 -999 -999
2007-01-26 08:26:11 51°18.919 2°54.832 -999 -999 -999 -999 -999
2007-01-26 08:26:16 51°18.928 2°54.86 -999 -999 -999 -999 -999
2007-01-26 08:26:21 51°18.934 2°54.889 -999 -999 -999 -999 -999
2007-01-26 08:26:26 51°18.942 2°54.916 -999 -999 -999 -999 -999
2007-01-26 08:26:31 51°18.948 2°54.945 -999 -999 -999 -999 -999
2007-01-26 08:26:36 51°18.956 2°54.973 -999 -999 -999 -999 -999
2007-01-26 08:26:41 51°18.963 2°55.001 -999 -999 -999 -999 -999
2007-01-26 08:26:46 51°18.97 2°55.029 -999 -999 -999 -999 -999
2007-01-26 08:26:51 51°18.976 2°55.058 -999 -999 -999 -999 -999
2007-01-26 08:26:56 51°18.983 2°55.086 -999 -999 -999 -999 -999
2007-01-26 08:27:01 51°18.989 2°55.115 -999 -999 -999 -999 -999
2007-01-26 08:27:06 51°18.995 2°55.143 -999 -999 -999 -999 -999
2007-01-26 08:27:11 51°19.002 2°55.172 -999 -999 -999 -999 -999
2007-01-26 08:27:16 51°19.008 2°55.201 -999 -999 -999 -999 -999
2007-01-26 08:27:21 51°19.016 2°55.229 -999 -999 -999 -999 -999
2007-01-26 08:27:26 51°19.022 2°55.258 -999 -999 -999 -999 -999
2007-01-26 08:27:31 51°19.03 2°55.287 -999 -999 -999 -999 -999
2007-01-26 08:27:36 51°19.037 2°55.316 -999 -999 -999 -999 -999
2007-01-26 08:27:41 51°19.045 2°55.344 -999 -999 -999 -999 -999
2007-01-26 08:27:46 51°19.052 2°55.374 -999 -999 -999 -999 -999
2007-01-26 08:27:51 51°19.059 2°55.403 -999 -999 -999 -999 -999
2007-01-26 08:27:56 51°19.067 2°55.431 -999 -999 -999 -999 -999
2007-01-26 08:28:01 51°19.074 2°55.46 -999 -999 -999 -999 -999
2007-01-26 08:28:06 51°19.082 2°55.488 -999 -999 -999 -999 -999
2007-01-26 08:28:11 51°19.089 2°55.517 -999 -999 -999 -999 -999
2007-01-26 08:28:16 51°19.098 2°55.545 -999 -999 -999 -999 -999
2007-01-26 08:28:21 51°19.105 2°55.574 -999 -999 -999 -999 -999
2007-01-26 08:28:26 51°19.112 2°55.602 -999 -999 -999 -999 -999
2007-01-26 08:28:31 51°19.118 2°55.632 -999 -999 -999 -999 -999
2007-01-26 08:28:36 51°19.125 2°55.661 -999 -999 -999 -999 -999
2007-01-26 08:28:41 51°19.133 2°55.688 -999 -999 -999 -999 -999
2007-01-26 08:28:46 51°19.14 2°55.716 -999 -999 -999 -999 -999
2007-01-26 08:28:51 51°19.148 2°55.745 -999 -999 -999 -999 -999
2007-01-26 08:28:56 51°19.156 2°55.773 -999 -999 -999 -999 -999
2007-01-26 08:29:01 51°19.162 2°55.802 -999 -999 -999 -999 -999
2007-01-26 08:29:06 51°19.17 2°55.83 -999 -999 -999 -999 -999
2007-01-26 08:29:11 51°19.177 2°55.859 -999 -999 -999 -999 -999
2007-01-26 08:29:16 51°19.185 2°55.887 -999 -999 -999 -999 -999
2007-01-26 08:29:21 51°19.191 2°55.916 -999 -999 -999 -999 -999
2007-01-26 08:29:26 51°19.199 2°55.944 -999 -999 -999 -999 -999
2007-01-26 08:29:31 51°19.206 2°55.973 -999 -999 -999 -999 -999
2007-01-26 08:29:36 51°19.212 2°56.002 -999 -999 -999 -999 -999
2007-01-26 08:29:41 51°19.221 2°56.03 -999 -999 -999 -999 -999
2007-01-26 08:29:46 51°19.227 2°56.058 -999 -999 -999 -999 -999
2007-01-26 08:29:51 51°19.236 2°56.086 -999 -999 -999 -999 -999
2007-01-26 08:29:56 51°19.242 2°56.115 -999 -999 -999 -999 -999
2007-01-26 08:30:01 51°19.251 2°56.144 -999 -999 -999 -999 -999
2007-01-26 08:30:06 51°19.258 2°56.172 -999 -999 -999 -999 -999
2007-01-26 08:30:11 51°19.266 2°56.201 -999 -999 -999 -999 -999
2007-01-26 08:30:16 51°19.273 2°56.229 -999 -999 -999 -999 -999
2007-01-26 08:30:21 51°19.279 2°56.258 -999 -999 -999 -999 -999
2007-01-26 08:30:26 51°19.288 2°56.285 -999 -999 -999 -999 -999
2007-01-26 08:30:31 51°19.294 2°56.315 -999 -999 -999 -999 -999
2007-01-26 08:30:36 51°19.302 2°56.342 -999 -999 -999 -999 -999
2007-01-26 08:30:41 51°19.309 2°56.371 -999 -999 -999 -999 -999
2007-01-26 08:30:46 51°19.316 2°56.4 -999 -999 -999 -999 -999
2007-01-26 08:30:51 51°19.325 2°56.427 -999 -999 -999 -999 -999
2007-01-26 08:30:56 51°19.331 2°56.456 -999 -999 -999 -999 -999
2007-01-26 08:31:01 51°19.34 2°56.484 -999 -999 -999 -999 -999
2007-01-26 08:31:06 51°19.346 2°56.513 -999 -999 -999 -999 -999
2007-01-26 08:31:11 51°19.354 2°56.542 -999 -999 -999 -999 -999
2007-01-26 08:31:16 51°19.361 2°56.571 -999 -999 -999 -999 -999
2007-01-26 08:31:21 51°19.368 2°56.6 -999 -999 -999 -999 -999
2007-01-26 08:31:26 51°19.375 2°56.629 -999 -999 -999 -999 -999
2007-01-26 08:31:31 51°19.383 2°56.658 -999 -999 -999 -999 -999
2007-01-26 08:31:36 51°19.39 2°56.688 -999 -999 -999 -999 -999
2007-01-26 08:31:41 51°19.396 2°56.718 -999 -999 -999 -999 -999
2007-01-26 08:31:46 51°19.404 2°56.747 -999 -999 -999 -999 -999
2007-01-26 08:31:51 51°19.411 2°56.776 -999 -999 -999 -999 -999
2007-01-26 08:31:56 51°19.419 2°56.805 -999 -999 -999 -999 -999
2007-01-26 08:32:01 51°19.427 2°56.834 -999 -999 -999 -999 -999
2007-01-26 08:32:06 51°19.433 2°56.864 -999 -999 -999 -999 -999
2007-01-26 08:32:11 51°19.442 2°56.892 -999 -999 -999 -999 -999
2007-01-26 08:32:16 51°19.448 2°56.922 -999 -999 -999 -999 -999
2007-01-26 08:32:21 51°19.456 2°56.951 -999 -999 -999 -999 -999
2007-01-26 08:32:26 51°19.463 2°56.979 -999 -999 -999 -999 -999
2007-01-26 08:32:31 51°19.47 2°57.008 -999 -999 -999 -999 -999
2007-01-26 08:32:36 51°19.478 2°57.037 -999 -999 -999 -999 -999
2007-01-26 08:32:41 51°19.485 2°57.065 -999 -999 -999 -999 -999
2007-01-26 08:32:46 51°19.491 2°57.095 -999 -999 -999 -999 -999
2007-01-26 08:32:51 51°19.498 2°57.124 -999 -999 -999 -999 -999
2007-01-26 08:32:56 51°19.504 2°57.153 -999 -999 -999 -999 -999
2007-01-26 08:33:01 51°19.511 2°57.182 -999 -999 -999 -999 -999
2007-01-26 08:33:06 51°19.518 2°57.212 -999 -999 -999 -999 -999
2007-01-26 08:33:11 51°19.526 2°57.241 -999 -999 -999 -999 -999
2007-01-26 08:33:16 51°19.534 2°57.27 -999 -999 -999 -999 -999
2007-01-26 08:33:21 51°19.541 2°57.299 -999 -999 -999 -999 -999
2007-01-26 08:33:26 51°19.547 2°57.329 -999 -999 -999 -999 -999
2007-01-26 08:33:31 51°19.555 2°57.357 -999 -999 -999 -999 -999
2007-01-26 08:33:36 51°19.56 2°57.388 -999 -999 -999 -999 -999
2007-01-26 08:33:41 51°19.569 2°57.416 -999 -999 -999 -999 -999
2007-01-26 08:33:46 51°19.575 2°57.445 -999 -999 -999 -999 -999
2007-01-26 08:33:51 51°19.584 2°57.474 -999 -999 -999 -999 -999
2007-01-26 08:33:56 51°19.591 2°57.503 -999 -999 -999 -999 -999
2007-01-26 08:34:01 51°19.599 2°57.531 -999 -999 -999 -999 -999
2007-01-26 08:34:06 51°19.607 2°57.56 -999 -999 -999 -999 -999
2007-01-26 08:34:11 51°19.616 2°57.588 -999 -999 -999 -999 -999
2007-01-26 08:34:16 51°19.624 2°57.616 -999 -999 -999 -999 -999
2007-01-26 08:34:21 51°19.632 2°57.645 -999 -999 -999 -999 -999
2007-01-26 08:34:26 51°19.64 2°57.673 -999 -999 -999 -999 -999
2007-01-26 08:34:31 51°19.648 2°57.702 -999 -999 -999 -999 -999
2007-01-26 08:34:36 51°19.656 2°57.729 -999 -999 -999 -999 -999
2007-01-26 08:34:41 51°19.662 2°57.759 -999 -999 -999 -999 -999
2007-01-26 08:34:46 51°19.672 2°57.785 -999 -999 -999 -999 -999
2007-01-26 08:34:51 51°19.678 2°57.814 -999 -999 -999 -999 -999
2007-01-26 08:34:56 51°19.686 2°57.842 -999 -999 -999 -999 -999
2007-01-26 08:35:01 51°19.693 2°57.871 -999 -999 -999 -999 -999
2007-01-26 08:35:06 51°19.701 2°57.899 -999 -999 -999 -999 -999
2007-01-26 08:35:11 51°19.708 2°57.928 -999 -999 -999 -999 -999
2007-01-26 08:35:16 51°19.717 2°57.956 -999 -999 -999 -999 -999
2007-01-26 08:35:21 51°19.723 2°57.985 -999 -999 -999 -999 -999
2007-01-26 08:35:26 51°19.732 2°58.013 -999 -999 -999 -999 -999
2007-01-26 08:35:31 51°19.739 2°58.042 -999 -999 -999 -999 -999
2007-01-26 08:35:36 51°19.746 2°58.071 -999 -999 -999 -999 -999
2007-01-26 08:35:41 51°19.754 2°58.1 -999 -999 -999 -999 -999
2007-01-26 08:35:46 51°19.761 2°58.129 -999 -999 -999 -999 -999
2007-01-26 08:35:51 51°19.769 2°58.157 -999 -999 -999 -999 -999
2007-01-26 08:35:56 51°19.776 2°58.186 -999 -999 -999 -999 -999
2007-01-26 08:36:01 51°19.783 2°58.215 -999 -999 -999 -999 -999
2007-01-26 08:36:06 51°19.79 2°58.244 -999 -999 -999 -999 -999
2007-01-26 08:36:11 51°19.797 2°58.272 -999 -999 -999 -999 -999
2007-01-26 08:36:16 51°19.805 2°58.301 -999 -999 -999 -999 -999
2007-01-26 08:36:21 51°19.813 2°58.328 -999 -999 -999 -999 -999
2007-01-26 08:36:26 51°19.821 2°58.357 -999 -999 -999 -999 -999
2007-01-26 08:36:31 51°19.829 2°58.385 -999 -999 -999 -999 -999
2007-01-26 08:36:36 51°19.837 2°58.414 -999 -999 -999 -999 -999
2007-01-26 08:36:41 51°19.845 2°58.443 -999 -999 -999 -999 -999
2007-01-26 08:36:46 51°19.852 2°58.471 -999 -999 -999 -999 -999
2007-01-26 08:36:51 51°19.86 2°58.5 -999 -999 -999 -999 -999
2007-01-26 08:36:56 51°19.868 2°58.529 -999 -999 -999 -999 -999
2007-01-26 08:37:01 51°19.876 2°58.557 -999 -999 -999 -999 -999
2007-01-26 08:37:06 51°19.885 2°58.585 -999 -999 -999 -999 -999
2007-01-26 08:37:11 51°19.893 2°58.613 -999 -999 -999 -999 -999
2007-01-26 08:37:16 51°19.9 2°58.643 -999 -999 -999 -999 -999
2007-01-26 08:37:21 51°19.909 2°58.671 -999 -999 -999 -999 -999
2007-01-26 08:37:26 51°19.914 2°58.701 -999 -999 -999 -999 -999
2007-01-26 08:37:31 51°19.923 2°58.729 -999 -999 -999 -999 -999
2007-01-26 08:37:36 51°19.929 2°58.759 -999 -999 -999 -999 -999
2007-01-26 08:37:41 51°19.938 2°58.787 -999 -999 -999 -999 -999
2007-01-26 08:37:46 51°19.946 2°58.816 -999 -999 -999 -999 -999
2007-01-26 08:37:51 51°19.953 2°58.844 -999 -999 -999 -999 -999
2007-01-26 08:37:56 51°19.96 2°58.873 -999 -999 -999 -999 -999
2007-01-26 08:38:01 51°19.968 2°58.901 -999 -999 -999 -999 -999
2007-01-26 08:38:06 51°19.976 2°58.929 -999 -999 -999 -999 -999
2007-01-26 08:38:11 51°19.983 2°58.959 -999 -999 -999 -999 -999
2007-01-26 08:38:16 51°19.992 2°58.986 -999 -999 -999 -999 -999
2007-01-26 08:38:21 51°19.998 2°59.015 -999 -999 -999 -999 -999
2007-01-26 08:38:26 51°20.006 2°59.044 -999 -999 -999 -999 -999
2007-01-26 08:38:31 51°20.014 2°59.073 -999 -999 -999 -999 -999
2007-01-26 08:38:36 51°20.021 2°59.102 -999 -999 -999 -999 -999
2007-01-26 08:38:41 51°20.029 2°59.13 -999 -999 -999 -999 -999
2007-01-26 08:38:46 51°20.036 2°59.158 -999 -999 -999 -999 -999
2007-01-26 08:38:51 51°20.042 2°59.187 -999 -999 -999 -999 -999
2007-01-26 08:38:56 51°20.05 2°59.216 -999 -999 -999 -999 -999
2007-01-26 08:39:01 51°20.057 2°59.245 -999 -999 -999 -999 -999
2007-01-26 08:39:06 51°20.063 2°59.273 -999 -999 -999 -999 -999
2007-01-26 08:39:11 51°20.07 2°59.302 -999 -999 -999 -999 -999
2007-01-26 08:39:16 51°20.079 2°59.33 -999 -999 -999 -999 -999
2007-01-26 08:39:21 51°20.087 2°59.358 -999 -999 -999 -999 -999
2007-01-26 08:39:26 51°20.096 2°59.385 -999 -999 -999 -999 -999
2007-01-26 08:39:31 51°20.103 2°59.412 -999 -999 -999 -999 -999
2007-01-26 08:39:36 51°20.111 2°59.439 -999 -999 -999 -999 -999
2007-01-26 08:39:41 51°20.118 2°59.467 -999 -999 -999 -999 -999
2007-01-26 08:39:46 51°20.126 2°59.493 -999 -999 -999 -999 -999
2007-01-26 08:39:51 51°20.131 2°59.522 -999 -999 -999 -999 -999
2007-01-26 08:39:56 51°20.141 2°59.547 -999 -999 -999 -999 -999
2007-01-26 08:40:01 51°20.146 2°59.576 -999 -999 -999 -999 -999
2007-01-26 08:40:06 51°20.154 2°59.603 -999 -999 -999 -999 -999
2007-01-26 08:40:11 51°20.16 2°59.631 -999 -999 -999 -999 -999
2007-01-26 08:40:16 51°20.165 2°59.659 -999 -999 -999 -999 -999
2007-01-26 08:40:21 51°20.172 2°59.687 -999 -999 -999 -999 -999
2007-01-26 08:40:26 51°20.178 2°59.716 -999 -999 -999 -999 -999
2007-01-26 08:40:31 51°20.184 2°59.745 -999 -999 -999 -999 -999
2007-01-26 08:40:36 51°20.191 2°59.773 -999 -999 -999 -999 -999
2007-01-26 08:40:41 51°20.197 2°59.801 -999 -999 -999 -999 -999
2007-01-26 08:40:46 51°20.203 2°59.83 -999 -999 -999 -999 -999
2007-01-26 08:40:51 51°20.211 2°59.858 -999 -999 -999 -999 -999
2007-01-26 08:40:56 51°20.219 2°59.886 -999 -999 -999 -999 -999
2007-01-26 08:41:01 51°20.224 2°59.914 -999 -999 -999 -999 -999
2007-01-26 08:41:06 51°20.232 2°59.942 -999 -999 -999 -999 -999
2007-01-26 08:41:11 51°20.238 2°59.972 -999 -999 -999 -999 -999
2007-01-26 08:41:16 51°20.247 2°59.999 -999 -999 -999 -999 -999
2007-01-26 08:41:21 51°20.252 3°0.028 -999 -999 -999 -999 -999
2007-01-26 08:41:26 51°20.262 3°0.055 -999 -999 -999 -999 -999
2007-01-26 08:41:31 51°20.268 3°0.085 -999 -999 -999 -999 -999
2007-01-26 08:41:36 51°20.276 3°0.113 -999 -999 -999 -999 -999
2007-01-26 08:41:41 51°20.282 3°0.142 -999 -999 -999 -999 -999
2007-01-26 08:41:46 51°20.289 3°0.171 -999 -999 -999 -999 -999
2007-01-26 08:41:51 51°20.295 3°0.2 -999 -999 -999 -999 -999
2007-01-26 08:41:56 51°20.304 3°0.228 -999 -999 -999 -999 -999
2007-01-26 08:42:01 51°20.31 3°0.257 -999 -999 -999 -999 -999
2007-01-26 08:42:06 51°20.318 3°0.284 -999 -999 -999 -999 -999
2007-01-26 08:42:11 51°20.325 3°0.314 -999 -999 -999 -999 -999
2007-01-26 08:42:16 51°20.333 3°0.342 -999 -999 -999 -999 -999
2007-01-26 08:42:21 51°20.339 3°0.371 -999 -999 -999 -999 -999
2007-01-26 08:42:26 51°20.348 3°0.399 -999 -999 -999 -999 -999
2007-01-26 08:42:31 51°20.355 3°0.428 -999 -999 -999 -999 -999
2007-01-26 08:42:36 51°20.362 3°0.457 -999 -999 -999 -999 -999
2007-01-26 08:42:41 51°20.37 3°0.485 -999 -999 -999 -999 -999
2007-01-26 08:42:46 51°20.376 3°0.514 -999 -999 -999 -999 -999
2007-01-26 08:42:51 51°20.384 3°0.543 -999 -999 -999 -999 -999
2007-01-26 08:42:56 51°20.392 3°0.571 -999 -999 -999 -999 -999
2007-01-26 08:43:01 51°20.398 3°0.6 -999 -999 -999 -999 -999
2007-01-26 08:43:06 51°20.406 3°0.629 -999 -999 -999 -999 -999
2007-01-26 08:43:11 51°20.413 3°0.657 -999 -999 -999 -999 -999
2007-01-26 08:43:16 51°20.42 3°0.686 -999 -999 -999 -999 -999
2007-01-26 08:43:21 51°20.428 3°0.715 -999 -999 -999 -999 -999
2007-01-26 08:43:26 51°20.435 3°0.745 -999 -999 -999 -999 -999
2007-01-26 08:43:31 51°20.445 3°0.773 -999 -999 -999 -999 -999
2007-01-26 08:43:36 51°20.451 3°0.802 -999 -999 -999 -999 -999
2007-01-26 08:43:41 51°20.46 3°0.83 -999 -999 -999 -999 -999
2007-01-26 08:43:46 51°20.466 3°0.86 -999 -999 -999 -999 -999
2007-01-26 08:43:51 51°20.474 3°0.888 -999 -999 -999 -999 -999
2007-01-26 08:43:56 51°20.48 3°0.919 -999 -999 -999 -999 -999
2007-01-26 08:44:01 51°20.488 3°0.948 -999 -999 -999 -999 -999
2007-01-26 08:44:06 51°20.494 3°0.977 -999 -999 -999 -999 -999
2007-01-26 08:44:11 51°20.502 3°1.007 -999 -999 -999 -999 -999
2007-01-26 08:44:16 51°20.51 3°1.036 -999 -999 -999 -999 -999
2007-01-26 08:44:21 51°20.516 3°1.065 -999 -999 -999 -999 -999
2007-01-26 08:44:26 51°20.523 3°1.094 -999 -999 -999 -999 -999
2007-01-26 08:44:31 51°20.53 3°1.124 -999 -999 -999 -999 -999
2007-01-26 08:44:36 51°20.538 3°1.153 -999 -999 -999 -999 -999
2007-01-26 08:44:41 51°20.544 3°1.183 -999 -999 -999 -999 -999
2007-01-26 08:44:46 51°20.554 3°1.211 -999 -999 -999 -999 -999
2007-01-26 08:44:51 51°20.559 3°1.242 -999 -999 -999 -999 -999
2007-01-26 08:44:56 51°20.57 3°1.268 -999 -999 -999 -999 -999
2007-01-26 08:45:01 51°20.575 3°1.298 -999 -999 -999 -999 -999
2007-01-26 08:45:06 51°20.584 3°1.326 -999 -999 -999 -999 -999
2007-01-26 08:45:11 51°20.591 3°1.357 -999 -999 -999 -999 -999
2007-01-26 08:45:16 51°20.6 3°1.384 -999 -999 -999 -999 -999
2007-01-26 08:45:21 51°20.605 3°1.413 -999 -999 -999 -999 -999
2007-01-26 08:45:26 51°20.613 3°1.442 -999 -999 -999 -999 -999
2007-01-26 08:45:31 51°20.622 3°1.47 -999 -999 -999 -999 -999
2007-01-26 08:45:36 51°20.628 3°1.498 -999 -999 -999 -999 -999
2007-01-26 08:45:41 51°20.635 3°1.528 -999 -999 -999 -999 -999
2007-01-26 08:45:46 51°20.645 3°1.556 -999 -999 -999 -999 -999
2007-01-26 08:45:51 51°20.65 3°1.585 -999 -999 -999 -999 -999
2007-01-26 08:45:56 51°20.658 3°1.612 -999 -999 -999 -999 -999
2007-01-26 08:46:01 51°20.663 3°1.642 -999 -999 -999 -999 -999
2007-01-26 08:46:06 51°20.673 3°1.67 -999 -999 -999 -999 -999
2007-01-26 08:46:11 51°20.677 3°1.699 -999 -999 -999 -999 -999
2007-01-26 08:46:16 51°20.685 3°1.728 -999 -999 -999 -999 -999
2007-01-26 08:46:21 51°20.692 3°1.756 -999 -999 -999 -999 -999
2007-01-26 08:46:26 51°20.698 3°1.785 -999 -999 -999 -999 -999
2007-01-26 08:46:31 51°20.705 3°1.813 -999 -999 -999 -999 -999
2007-01-26 08:46:36 51°20.711 3°1.842 -999 -999 -999 -999 -999
2007-01-26 08:46:41 51°20.719 3°1.87 -999 -999 -999 -999 -999
2007-01-26 08:46:46 51°20.724 3°1.898 -999 -999 -999 -999 -999
2007-01-26 08:46:51 51°20.732 3°1.926 -999 -999 -999 -999 -999
2007-01-26 08:46:56 51°20.738 3°1.954 -999 -999 -999 -999 -999
2007-01-26 08:47:01 51°20.746 3°1.981 -999 -999 -999 -999 -999
2007-01-26 08:47:06 51°20.752 3°2.009 -999 -999 -999 -999 -999
2007-01-26 08:47:11 51°20.759 3°2.037 -999 -999 -999 -999 -999
2007-01-26 08:47:16 51°20.767 3°2.065 -999 -999 -999 -999 -999
2007-01-26 08:47:21 51°20.773 3°2.093 -999 -999 -999 -999 -999
2007-01-26 08:47:26 51°20.78 3°2.122 -999 -999 -999 -999 -999
2007-01-26 08:47:31 51°20.787 3°2.15 -999 -999 -999 -999 -999
2007-01-26 08:47:36 51°20.793 3°2.178 -999 -999 -999 -999 -999
2007-01-26 08:47:41 51°20.799 3°2.207 -999 -999 -999 -999 -999
2007-01-26 08:47:46 51°20.806 3°2.235 -999 -999 -999 -999 -999
2007-01-26 08:47:51 51°20.813 3°2.263 -999 -999 -999 -999 -999
2007-01-26 08:47:56 51°20.82 3°2.291 -999 -999 -999 -999 -999
2007-01-26 08:48:01 51°20.827 3°2.319 -999 -999 -999 -999 -999
2007-01-26 08:48:06 51°20.834 3°2.347 -999 -999 -999 -999 -999
2007-01-26 08:48:11 51°20.839 3°2.377 -999 -999 -999 -999 -999
2007-01-26 08:48:16 51°20.849 3°2.404 -999 -999 -999 -999 -999
2007-01-26 08:48:21 51°20.855 3°2.432 -999 -999 -999 -999 -999
2007-01-26 08:48:26 51°20.861 3°2.461 -999 -999 -999 -999 -999
2007-01-26 08:48:31 51°20.868 3°2.49 -999 -999 -999 -999 -999
2007-01-26 08:48:36 51°20.874 3°2.518 -999 -999 -999 -999 -999
2007-01-26 08:48:41 51°20.882 3°2.546 -999 -999 -999 -999 -999
2007-01-26 08:48:46 51°20.888 3°2.574 -999 -999 -999 -999 -999
2007-01-26 08:48:51 51°20.897 3°2.601 -999 -999 -999 -999 -999
2007-01-26 08:48:56 51°20.904 3°2.63 -999 -999 -999 -999 -999
2007-01-26 08:49:01 51°20.912 3°2.658 -999 -999 -999 -999 -999
2007-01-26 08:49:06 51°20.919 3°2.686 -999 -999 -999 -999 -999
2007-01-26 08:49:11 51°20.926 3°2.715 -999 -999 -999 -999 -999
2007-01-26 08:49:16 51°20.934 3°2.742 -999 -999 -999 -999 -999
2007-01-26 08:49:21 51°20.942 3°2.771 -999 -999 -999 -999 -999
2007-01-26 08:49:26 51°20.95 3°2.798 -999 -999 -999 -999 -999
2007-01-26 08:49:31 51°20.957 3°2.826 -999 -999 -999 -999 -999
2007-01-26 08:49:36 51°20.966 3°2.855 -999 -999 -999 -999 -999
2007-01-26 08:49:41 51°20.972 3°2.884 -999 -999 -999 -999 -999
2007-01-26 08:49:46 51°20.978 3°2.913 -999 -999 -999 -999 -999
2007-01-26 08:49:51 51°20.985 3°2.941 -999 -999 -999 -999 -999
2007-01-26 08:49:56 51°20.992 3°2.97 -999 -999 -999 -999 -999
2007-01-26 08:50:01 51°21.002 3°2.996 -999 -999 -999 -999 -999
2007-01-26 08:50:06 51°21.008 3°3.024 -999 -999 -999 -999 -999
2007-01-26 08:50:11 51°21.015 3°3.053 -999 -999 -999 -999 -999
2007-01-26 08:50:16 51°21.022 3°3.08 -999 -999 -999 -999 -999
2007-01-26 08:50:21 51°21.028 3°3.109 -999 -999 -999 -999 -999
2007-01-26 08:50:26 51°21.037 3°3.136 -999 -999 -999 -999 -999
2007-01-26 08:50:31 51°21.042 3°3.165 -999 -999 -999 -999 -999
2007-01-26 08:50:36 51°21.052 3°3.192 -999 -999 -999 -999 -999
2007-01-26 08:50:41 51°21.058 3°3.22 -999 -999 -999 -999 -999
2007-01-26 08:50:46 51°21.066 3°3.247 -999 -999 -999 -999 -999
2007-01-26 08:50:51 51°21.074 3°3.276 -999 -999 -999 -999 -999
2007-01-26 08:50:56 51°21.081 3°3.303 -999 -999 -999 -999 -999
2007-01-26 08:51:01 51°21.088 3°3.331 -999 -999 -999 -999 -999
2007-01-26 08:51:06 51°21.095 3°3.359 -999 -999 -999 -999 -999
2007-01-26 08:51:11 51°21.102 3°3.387 -999 -999 -999 -999 -999
2007-01-26 08:51:16 51°21.109 3°3.415 -999 -999 -999 -999 -999
2007-01-26 08:51:21 51°21.117 3°3.443 -999 -999 -999 -999 -999
2007-01-26 08:51:26 51°21.124 3°3.471 -999 -999 -999 -999 -999
2007-01-26 08:51:31 51°21.132 3°3.498 -999 -999 -999 -999 -999
2007-01-26 08:51:36 51°21.138 3°3.527 -999 -999 -999 -999 -999
2007-01-26 08:51:41 51°21.147 3°3.554 -999 -999 -999 -999 -999
2007-01-26 08:51:46 51°21.154 3°3.582 -999 -999 -999 -999 -999
2007-01-26 08:51:51 51°21.162 3°3.61 -999 -999 -999 -999 -999
2007-01-26 08:51:56 51°21.168 3°3.638 -999 -999 -999 -999 -999
2007-01-26 08:52:01 51°21.175 3°3.666 -999 -999 -999 -999 -999
2007-01-26 08:52:06 51°21.183 3°3.694 -999 -999 -999 -999 -999
2007-01-26 08:52:11 51°21.189 3°3.723 -999 -999 -999 -999 -999
2007-01-26 08:52:16 51°21.197 3°3.751 -999 -999 -999 -999 -999
2007-01-26 08:52:21 51°21.203 3°3.781 -999 -999 -999 -999 -999
2007-01-26 08:52:26 51°21.211 3°3.808 -999 -999 -999 -999 -999
2007-01-26 08:52:31 51°21.216 3°3.838 -999 -999 -999 -999 -999
2007-01-26 08:52:36 51°21.224 3°3.866 -999 -999 -999 -999 -999
2007-01-26 08:52:41 51°21.229 3°3.896 -999 -999 -999 -999 -999
2007-01-26 08:52:46 51°21.235 3°3.924 -999 -999 -999 -999 -999
2007-01-26 08:52:51 51°21.243 3°3.953 -999 -999 -999 -999 -999
2007-01-26 08:52:56 51°21.25 3°3.981 -999 -999 -999 -999 -999
2007-01-26 08:53:01 51°21.257 3°4.009 -999 -999 -999 -999 -999
2007-01-26 08:53:06 51°21.265 3°4.036 -999 -999 -999 -999 -999
2007-01-26 08:53:11 51°21.272 3°4.064 -999 -999 -999 -999 -999
2007-01-26 08:53:16 51°21.28 3°4.092 -999 -999 -999 -999 -999
2007-01-26 08:53:21 51°21.286 3°4.12 -999 -999 -999 -999 -999
2007-01-26 08:53:26 51°21.294 3°4.148 -999 -999 -999 -999 -999
2007-01-26 08:53:31 51°21.3 3°4.176 -999 -999 -999 -999 -999
2007-01-26 08:53:36 51°21.306 3°4.204 -999 -999 -999 -999 -999
2007-01-26 08:53:41 51°21.313 3°4.232 -999 -999 -999 -999 -999
2007-01-26 08:53:46 51°21.319 3°4.26 -999 -999 -999 -999 -999
2007-01-26 08:53:51 51°21.326 3°4.289 -999 -999 -999 -999 -999
2007-01-26 08:53:56 51°21.333 3°4.316 -999 -999 -999 -999 -999
2007-01-26 08:54:01 51°21.339 3°4.345 -999 -999 -999 -999 -999
2007-01-26 08:54:06 51°21.347 3°4.372 -999 -999 -999 -999 -999
2007-01-26 08:54:11 51°21.353 3°4.401 -999 -999 -999 -999 -999
2007-01-26 08:54:16 51°21.362 3°4.429 -999 -999 -999 -999 -999
2007-01-26 08:54:21 51°21.369 3°4.457 -999 -999 -999 -999 -999
2007-01-26 08:54:26 51°21.376 3°4.485 -999 -999 -999 -999 -999
2007-01-26 08:54:31 51°21.384 3°4.512 -999 -999 -999 -999 -999
2007-01-26 08:54:36 51°21.392 3°4.54 -999 -999 -999 -999 -999
2007-01-26 08:54:41 51°21.4 3°4.568 -999 -999 -999 -999 -999
2007-01-26 08:54:46 51°21.408 3°4.596 -999 -999 -999 -999 -999
2007-01-26 08:54:51 51°21.415 3°4.623 -999 -999 -999 -999 -999
2007-01-26 08:54:56 51°21.421 3°4.651 -999 -999 -999 -999 -999
2007-01-26 08:55:01 51°21.429 3°4.678 -999 -999 -999 -999 -999
2007-01-26 08:55:06 51°21.436 3°4.706 -999 -999 -999 -999 -999
2007-01-26 08:55:11 51°21.444 3°4.733 -999 -999 -999 -999 -999
2007-01-26 08:55:16 51°21.45 3°4.761 -999 -999 -999 -999 -999
2007-01-26 08:55:21 51°21.456 3°4.789 -999 -999 -999 -999 -999
2007-01-26 08:55:26 51°21.464 3°4.818 -999 -999 -999 -999 -999
2007-01-26 08:55:31 51°21.472 3°4.845 -999 -999 -999 -999 -999
2007-01-26 08:55:36 51°21.478 3°4.874 -999 -999 -999 -999 -999
2007-01-26 08:55:41 51°21.486 3°4.901 -999 -999 -999 -999 -999
2007-01-26 08:55:46 51°21.492 3°4.93 -999 -999 -999 -999 -999
2007-01-26 08:55:51 51°21.501 3°4.958 -999 -999 -999 -999 -999
2007-01-26 08:55:56 51°21.507 3°4.987 -999 -999 -999 -999 -999
2007-01-26 08:56:01 51°21.513 3°5.016 -999 -999 -999 -999 -999
2007-01-26 08:56:06 51°21.52 3°5.044 -999 -999 -999 -999 -999
2007-01-26 08:56:11 51°21.526 3°5.074 -999 -999 -999 -999 -999
2007-01-26 08:56:16 51°21.534 3°5.103 -999 -999 -999 -999 -999
2007-01-26 08:56:21 51°21.54 3°5.131 -999 -999 -999 -999 -999
2007-01-26 08:56:26 51°21.547 3°5.159 -999 -999 -999 -999 -999
2007-01-26 08:56:31 51°21.554 3°5.187 -999 -999 -999 -999 -999
2007-01-26 08:56:36 51°21.562 3°5.216 -999 -999 -999 -999 -999
2007-01-26 08:56:41 51°21.57 3°5.243 -999 -999 -999 -999 -999
2007-01-26 08:56:46 51°21.576 3°5.271 -999 -999 -999 -999 -999
2007-01-26 08:56:51 51°21.584 3°5.298 -999 -999 -999 -999 -999
2007-01-26 08:56:56 51°21.59 3°5.327 -999 -999 -999 -999 -999
2007-01-26 08:57:01 51°21.6 3°5.353 -999 -999 -999 -999 -999
2007-01-26 08:57:06 51°21.605 3°5.382 -999 -999 -999 -999 -999
2007-01-26 08:57:11 51°21.612 3°5.41 -999 -999 -999 -999 -999
2007-01-26 08:57:16 51°21.62 3°5.438 -999 -999 -999 -999 -999
2007-01-26 08:57:21 51°21.626 3°5.466 -999 -999 -999 -999 -999
2007-01-26 08:57:26 51°21.634 3°5.495 -999 -999 -999 -999 -999
2007-01-26 08:57:31 51°21.641 3°5.523 -999 -999 -999 -999 -999
2007-01-26 08:57:36 51°21.649 3°5.551 -999 -999 -999 -999 -999
2007-01-26 08:57:41 51°21.655 3°5.579 -999 -999 -999 -999 -999
2007-01-26 08:57:46 51°21.662 3°5.607 -999 -999 -999 -999 -999
2007-01-26 08:57:51 51°21.67 3°5.635 -999 -999 -999 -999 -999
2007-01-26 08:57:56 51°21.676 3°5.663 -999 -999 -999 -999 -999
2007-01-26 08:58:01 51°21.684 3°5.691 -999 -999 -999 -999 -999
2007-01-26 08:58:06 51°21.69 3°5.718 -999 -999 -999 -999 -999
2007-01-26 08:58:11 51°21.696 3°5.747 -999 -999 -999 -999 -999
2007-01-26 08:58:16 51°21.703 3°5.775 -999 -999 -999 -999 -999
2007-01-26 08:58:21 51°21.71 3°5.802 -999 -999 -999 -999 -999
2007-01-26 08:58:26 51°21.716 3°5.83 -999 -999 -999 -999 -999
2007-01-26 08:58:31 51°21.723 3°5.858 -999 -999 -999 -999 -999
2007-01-26 08:58:36 51°21.728 3°5.886 -999 -999 -999 -999 -999
2007-01-26 08:58:41 51°21.734 3°5.915 -999 -999 -999 -999 -999
2007-01-26 08:58:46 51°21.742 3°5.943 -999 -999 -999 -999 -999
2007-01-26 08:58:51 51°21.748 3°5.97 -999 -999 -999 -999 -999
2007-01-26 08:58:56 51°21.755 3°5.998 -999 -999 -999 -999 -999
2007-01-26 08:59:01 51°21.762 3°6.025 -999 -999 -999 -999 -999
2007-01-26 08:59:06 51°21.768 3°6.053 -999 -999 -999 -999 -999
2007-01-26 08:59:11 51°21.774 3°6.081 -999 -999 -999 -999 -999
2007-01-26 08:59:16 51°21.779 3°6.109 -999 -999 -999 -999 -999
2007-01-26 08:59:21 51°21.787 3°6.136 -999 -999 -999 -999 -999
2007-01-26 08:59:26 51°21.793 3°6.164 -999 -999 -999 -999 -999
2007-01-26 08:59:31 51°21.799 3°6.193 -999 -999 -999 -999 -999
2007-01-26 08:59:36 51°21.804 3°6.221 -999 -999 -999 -999 -999
2007-01-26 08:59:41 51°21.809 3°6.249 -999 -999 -999 -999 -999
2007-01-26 08:59:46 51°21.816 3°6.277 -999 -999 -999 -999 -999
2007-01-26 08:59:51 51°21.822 3°6.305 -999 -999 -999 -999 -999
2007-01-26 08:59:56 51°21.828 3°6.333 -999 -999 -999 -999 -999
2007-01-26 09:00:01 51°21.836 3°6.36 -999 -999 -999 -999 -999
2007-01-26 09:00:06 51°21.84 3°6.388 -999 -999 -999 -999 -999
2007-01-26 09:00:11 51°21.847 3°6.416 -999 -999 -999 -999 -999
2007-01-26 09:00:16 51°21.853 3°6.443 -999 -999 -999 -999 -999
2007-01-26 09:00:21 51°21.857 3°6.472 -999 -999 -999 -999 -999
2007-01-26 09:00:26 51°21.861 3°6.5 -999 -999 -999 -999 -999
2007-01-26 09:00:31 51°21.864 3°6.53 -999 -999 -999 -999 -999
2007-01-26 09:00:36 51°21.868 3°6.558 -999 -999 -999 -999 -999
2007-01-26 09:00:41 51°21.87 3°6.588 -999 -999 -999 -999 -999
2007-01-26 09:00:46 51°21.873 3°6.616 -999 -999 -999 -999 -999
2007-01-26 09:00:51 51°21.873 3°6.645 -999 -999 -999 -999 -999
2007-01-26 09:00:56 51°21.877 3°6.674 -999 -999 -999 -999 -999
2007-01-26 09:01:01 51°21.877 3°6.703 -999 -999 -999 -999 -999
2007-01-26 09:01:06 51°21.88 3°6.732 -999 -999 -999 -999 -999
2007-01-26 09:01:11 51°21.882 3°6.76 -999 -999 -999 -999 -999
2007-01-26 09:01:16 51°21.882 3°6.789 -999 -999 -999 -999 -999
2007-01-26 09:01:21 51°21.886 3°6.819 -999 -999 -999 -999 -999
2007-01-26 09:01:26 51°21.888 3°6.848 -999 -999 -999 -999 -999
2007-01-26 09:01:31 51°21.888 3°6.876 -999 -999 -999 -999 -999
2007-01-26 09:01:36 51°21.892 3°6.905 -999 -999 -999 -999 -999
2007-01-26 09:01:41 51°21.892 3°6.934 -999 -999 -999 -999 -999
2007-01-26 09:01:46 51°21.896 3°6.963 -999 -999 -999 -999 -999
2007-01-26 09:01:51 51°21.898 3°6.992 -999 -999 -999 -999 -999
2007-01-26 09:01:56 51°21.903 3°7.021 -999 -999 -999 -999 -999
2007-01-26 09:02:01 51°21.906 3°7.05 -999 -999 -999 -999 -999
2007-01-26 09:02:06 51°21.908 3°7.079 -999 -999 -999 -999 -999
2007-01-26 09:02:11 51°21.912 3°7.109 -999 -999 -999 -999 -999
2007-01-26 09:02:16 51°21.914 3°7.138 -999 -999 -999 -999 -999
2007-01-26 09:02:21 51°21.916 3°7.167 -999 -999 -999 -999 -999
2007-01-26 09:02:26 51°21.917 3°7.198 -999 -999 -999 -999 -999
2007-01-26 09:02:31 51°21.923 3°7.227 -999 -999 -999 -999 -999
2007-01-26 09:02:36 51°21.922 3°7.257 -999 -999 -999 -999 -999
2007-01-26 09:02:41 51°21.926 3°7.287 -999 -999 -999 -999 -999
2007-01-26 09:02:46 51°21.927 3°7.318 -999 -999 -999 -999 -999
2007-01-26 09:02:51 51°21.931 3°7.348 -999 -999 -999 -999 -999
2007-01-26 09:02:56 51°21.932 3°7.379 -999 -999 -999 -999 -999
2007-01-26 09:03:01 51°21.936 3°7.408 -999 -999 -999 -999 -999
2007-01-26 09:03:06 51°21.938 3°7.439 -999 -999 -999 -999 -999
2007-01-26 09:03:11 51°21.944 3°7.468 -999 -999 -999 -999 -999
2007-01-26 09:03:16 51°21.946 3°7.498 -999 -999 -999 -999 -999
2007-01-26 09:03:21 51°21.95 3°7.528 -999 -999 -999 -999 -999
2007-01-26 09:03:26 51°21.954 3°7.557 -999 -999 -999 -999 -999
2007-01-26 09:03:31 51°21.957 3°7.587 -999 -999 -999 -999 -999
2007-01-26 09:03:36 51°21.962 3°7.615 -999 -999 -999 -999 -999
2007-01-26 09:03:41 51°21.964 3°7.645 -999 -999 -999 -999 -999
2007-01-26 09:03:46 51°21.969 3°7.673 -999 -999 -999 -999 -999
2007-01-26 09:03:51 51°21.97 3°7.702 -999 -999 -999 -999 -999
2007-01-26 09:03:56 51°21.976 3°7.731 -999 -999 -999 -999 -999
2007-01-26 09:04:01 51°21.979 3°7.76 -999 -999 -999 -999 -999
2007-01-26 09:04:06 51°21.981 3°7.789 -999 -999 -999 -999 -999
2007-01-26 09:04:11 51°21.985 3°7.819 -999 -999 -999 -999 -999
2007-01-26 09:04:16 51°21.986 3°7.848 -999 -999 -999 -999 -999
2007-01-26 09:04:21 51°21.99 3°7.877 -999 -999 -999 -999 -999
2007-01-26 09:04:26 51°21.992 3°7.907 -999 -999 -999 -999 -999
2007-01-26 09:04:31 51°21.996 3°7.936 -999 -999 -999 -999 -999
2007-01-26 09:04:36 51°21.998 3°7.965 -999 -999 -999 -999 -999
2007-01-26 09:04:41 51°22.002 3°7.994 -999 -999 -999 -999 -999
2007-01-26 09:04:46 51°22.006 3°8.023 -999 -999 -999 -999 -999
2007-01-26 09:04:51 51°22.01 3°8.051 -999 -999 -999 -999 -999
2007-01-26 09:04:56 51°22.014 3°8.08 -999 -999 -999 -999 -999
2007-01-26 09:05:01 51°22.017 3°8.109 -999 -999 -999 -999 -999
2007-01-26 09:05:06 51°22.021 3°8.138 -999 -999 -999 -999 -999
2007-01-26 09:05:11 51°22.024 3°8.168 -999 -999 -999 -999 -999
2007-01-26 09:05:16 51°22.027 3°8.197 -999 -999 -999 -999 -999
2007-01-26 09:05:21 51°22.03 3°8.226 -999 -999 -999 -999 -999
2007-01-26 09:05:26 51°22.034 3°8.256 -999 -999 -999 -999 -999
2007-01-26 09:05:31 51°22.039 3°8.285 -999 -999 -999 -999 -999
2007-01-26 09:05:36 51°22.041 3°8.314 -999 -999 -999 -999 -999
2007-01-26 09:05:41 51°22.045 3°8.342 -999 -999 -999 -999 -999
2007-01-26 09:05:46 51°22.047 3°8.371 -999 -999 -999 -999 -999
2007-01-26 09:05:51 51°22.049 3°8.4 -999 -999 -999 -999 -999
2007-01-26 09:05:56 51°22.053 3°8.429 -999 -999 -999 -999 -999
2007-01-26 09:06:01 51°22.055 3°8.458 -999 -999 -999 -999 -999
2007-01-26 09:06:06 51°22.059 3°8.487 -999 -999 -999 -999 -999
2007-01-26 09:06:11 51°22.062 3°8.515 -999 -999 -999 -999 -999
2007-01-26 09:06:16 51°22.065 3°8.544 -999 -999 -999 -999 -999
2007-01-26 09:06:21 51°22.067 3°8.574 -999 -999 -999 -999 -999
2007-01-26 09:06:26 51°22.07 3°8.602 -999 -999 -999 -999 -999
2007-01-26 09:06:31 51°22.071 3°8.631 -999 -999 -999 -999 -999
2007-01-26 09:06:36 51°22.074 3°8.661 -999 -999 -999 -999 -999
2007-01-26 09:06:41 51°22.076 3°8.691 -999 -999 -999 -999 -999
2007-01-26 09:06:46 51°22.081 3°8.719 -999 -999 -999 -999 -999
2007-01-26 09:06:51 51°22.081 3°8.747 -999 -999 -999 -999 -999
2007-01-26 09:06:56 51°22.085 3°8.772 -999 -999 -999 -999 -999
2007-01-26 09:07:01 51°22.086 3°8.799 -999 -999 -999 -999 -999
2007-01-26 09:07:06 51°22.091 3°8.823 -999 -999 -999 -999 -999
2007-01-26 09:07:11 51°22.092 3°8.847 -999 -999 -999 -999 -999
2007-01-26 09:07:16 51°22.093 3°8.87 -999 -999 -999 -999 -999
2007-01-26 09:07:21 51°22.09 3°8.891 -999 -999 -999 -999 -999
2007-01-26 09:07:26 51°22.084 3°8.909 -999 -999 -999 -999 -999
2007-01-26 09:07:31 51°22.078 3°8.925 -999 -999 -999 -999 -999
2007-01-26 09:07:36 51°22.069 3°8.937 -999 -999 -999 -999 -999
2007-01-26 09:07:41 51°22.06 3°8.946 -999 -999 -999 -999 -999
2007-01-26 09:07:46 51°22.05 3°8.951 -999 -999 -999 -999 -999
2007-01-26 09:07:51 51°22.04 3°8.955 -999 -999 -999 -999 -999
2007-01-26 09:07:56 51°22.03 3°8.955 -999 -999 -999 -999 -999
2007-01-26 09:08:01 51°22.02 3°8.954 -999 -999 -999 -999 -999
2007-01-26 09:08:06 51°22.011 3°8.949 -999 -999 -999 -999 -999
2007-01-26 09:08:11 51°22.002 3°8.942 -999 -999 -999 -999 -999
2007-01-26 09:08:16 51°21.995 3°8.933 -999 -999 -999 -999 -999
2007-01-26 09:08:21 51°21.987 3°8.924 -999 -999 -999 -999 -999
2007-01-26 09:08:26 51°21.979 3°8.913 -999 -999 -999 -999 -999
2007-01-26 09:08:31 51°21.972 3°8.902 -999 -999 -999 -999 -999
2007-01-26 09:08:36 51°21.965 3°8.891 -999 -999 -999 -999 -999
2007-01-26 09:08:41 51°21.957 3°8.881 -999 -999 -999 -999 -999
2007-01-26 09:08:46 51°21.949 3°8.872 -999 -999 -999 -999 -999
2007-01-26 09:08:51 51°21.941 3°8.863 -999 -999 -999 -999 -999
2007-01-26 09:08:56 51°21.932 3°8.856 -999 -999 -999 -999 -999
2007-01-26 09:09:01 51°21.924 3°8.848 -999 -999 -999 -999 -999
2007-01-26 09:09:06 51°21.915 3°8.841 -999 -999 -999 -999 -999
2007-01-26 09:09:11 51°21.906 3°8.835 -999 -999 -999 -999 -999
2007-01-26 09:09:16 51°21.897 3°8.828 -999 -999 -999 -999 -999